AISAT

Last updated on Thu Dec 13 2018 00:09:21 GMT+0000 (Coordinated Universal Time)

1 40054U 14034B 18346.19029470 .00000403 00000-0 63850-4 0 9992 2 40054 98.2157 99.7685 0014075 104.7714 255.5056 14.77627188239892
UTC large
Height (km)
Speed (km/s)
/
Latitude / Longitude
Inclination (degrees)
Orbital Period (minutes)
Azimuth
Elevation
Range (km)
Doppler Factor

Next 0 passes for location: London (51.5072 / 0.1276)

Sorry there are no passes over London.